When you browse on this site, cookies collect data to enhance your experience and personalize the content and advertising you see.
Visit our Privacy Policy to learn more. By continuing to use the site, you agree to this use of cookies and data.
  • în România
  • Lista ţărilor
  • Pe 7 zile
  • Temperatura apei
  • Hartă satelitară
  • Meteo pe hartă
  • Widget-uri
  • user-avatar
    Intrare

    Meteo pe oră la Exeter

    Astăzi, 22 Aprilie, Luni

    Timp Temperatura Precipitaţii Vânt Presiune Umiditate
    00:00 +9°C° 0 mm 2 m/s 750 mmHg 84%
    01:00 +9°C° 0 mm 2 m/s 750 mmHg 86%
    02:00 +9°C° 0 mm 2 m/s 749 mmHg 88%
    03:00 +8°C° 0 mm 3 m/s 748 mmHg 90%
    04:00 +9°C° 0 mm 3 m/s 748 mmHg 90%
    05:00 +9°C° 0 mm 3 m/s 747 mmHg 91%
    06:00 +8°C° 0 mm 4 m/s 747 mmHg 86%
    07:00 +10°C° 0 mm 5 m/s 746 mmHg 84%
    08:00 +13°C° 0 mm 5 m/s 746 mmHg 82%
    09:00 +14°C° 0 mm 5 m/s 745 mmHg 80%
    10:00 +15°C° 0 mm 5 m/s 745 mmHg 79%
    11:00 +16°C° 0 mm 5 m/s 745 mmHg 79%
    12:00 +16°C° 0 mm 5 m/s 744 mmHg 78%
    13:00 +16°C° 0 mm 5 m/s 744 mmHg 78%
    14:00 +16°C° 0 mm 5 m/s 743 mmHg 77%
    15:00 +16°C° 0 mm 5 m/s 743 mmHg 77%
    16:00 +15°C° 0 mm 4 m/s 743 mmHg 79%
    17:00 +15°C° 0 mm 4 m/s 742 mmHg 81%
    18:00 +14°C° 0 mm 3 m/s 742 mmHg 83%
    19:00 +13°C° 0 mm 3 m/s 742 mmHg 84%
    20:00 +13°C° 0 mm 4 m/s 742 mmHg 85%
    21:00 +12°C° 0 mm 4 m/s 742 mmHg 86%
    22:00 +12°C° 0.3 mm 3 m/s 742 mmHg 89%
    23:00 +12°C° 0.3 mm 3 m/s 741 mmHg 91%

    Mâine, 23 Aprilie, Marţi

    Timp Temperatura Precipitaţii Vânt Presiune Umiditate
    00:00 +13°C° 0.3 mm 2 m/s 741 mmHg 93%
    01:00 +12°C° 0 mm 2 m/s 740 mmHg 93%
    02:00 +11°C° 0 mm 3 m/s 740 mmHg 92%
    03:00 +11°C° 0 mm 3 m/s 739 mmHg 91%
    04:00 +11°C° 0 mm 3 m/s 739 mmHg 92%
    05:00 +10°C° 0 mm 3 m/s 739 mmHg 93%
    06:00 +10°C° 0 mm 3 m/s 738 mmHg 94%
    07:00 +12°C° 0 mm 4 m/s 738 mmHg 91%
    08:00 +14°C° 0 mm 5 m/s 738 mmHg 87%
    09:00 +15°C° 0 mm 5 m/s 738 mmHg 83%
    10:00 +16°C° 0 mm 6 m/s 738 mmHg 79%
    11:00 +16°C° 0 mm 6 m/s 738 mmHg 74%
    12:00 +17°C° 0 mm 6 m/s 738 mmHg 70%
    13:00 +17°C° 0 mm 6 m/s 738 mmHg 71%
    14:00 +17°C° 0 mm 6 m/s 738 mmHg 72%
    15:00 +16°C° 0 mm 6 m/s 737 mmHg 74%
    16:00 +16°C° 0 mm 5 m/s 737 mmHg 77%
    17:00 +15°C° 0 mm 5 m/s 737 mmHg 81%
    18:00 +14°C° 0 mm 4 m/s 737 mmHg 84%
    19:00 +13°C° 0 mm 4 m/s 737 mmHg 87%
    20:00 +12°C° 0 mm 3 m/s 737 mmHg 89%
    21:00 +11°C° 0 mm 3 m/s 737 mmHg 91%
    22:00 +11°C° 0.4 mm 3 m/s 736 mmHg 93%
    23:00 +11°C° 0.4 mm 3 m/s 736 mmHg 94%

    Poimâine, 24 Aprilie, Miercuri

    Timp Temperatura Precipitaţii Vânt Presiune Umiditate
    00:00 +11°C° 0.4 mm 3 m/s 736 mmHg 95%
    01:00 +11°C° 0.2 mm 3 m/s 736 mmHg 95%
    02:00 +11°C° 0.2 mm 4 m/s 735 mmHg 96%
    03:00 +11°C° 0.2 mm 4 m/s 735 mmHg 96%
    04:00 +11°C° 0.8 mm 4 m/s 735 mmHg 95%
    05:00 +9°C° 0.8 mm 5 m/s 735 mmHg 94%
    06:00 +8°C° 0.8 mm 5 m/s 735 mmHg 93%
    07:00 +9°C° 0.2 mm 5 m/s 736 mmHg 89%
    08:00 +9°C° 0.2 mm 6 m/s 736 mmHg 86%
    09:00 +10°C° 0.2 mm 6 m/s 737 mmHg 83%
    10:00 +11°C° 0.1 mm 7 m/s 737 mmHg 79%
    11:00 +11°C° 0.1 mm 7 m/s 737 mmHg 75%
    12:00 +12°C° 0.1 mm 8 m/s 737 mmHg 72%
    13:00 +12°C° 0.3 mm 8 m/s 737 mmHg 73%
    14:00 +11°C° 0.3 mm 8 m/s 737 mmHg 74%
    15:00 +11°C° 0.3 mm 8 m/s 737 mmHg 75%
    16:00 +11°C° 0.2 mm 8 m/s 737 mmHg 77%
    17:00 +10°C° 0.2 mm 7 m/s 736 mmHg 79%
    18:00 +9°C° 0.2 mm 7 m/s 736 mmHg 82%
    19:00 +9°C° 0.6 mm 8 m/s 735 mmHg 86%
    20:00 +7°C° 0.6 mm 9 m/s 735 mmHg 90%
    21:00 +7°C° 0.6 mm 10 m/s 735 mmHg 93%
    22:00 +7°C° 0.1 mm 9 m/s 735 mmHg 92%
    23:00 +7°C° 0.1 mm 8 m/s 734 mmHg 90%

    25 Aprilie, Joi

    Timp Temperatura Precipitaţii Vânt Presiune Umiditate
    00:00 +8°C° 0.1 mm 7 m/s 734 mmHg 89%
    01:00 +6°C° 0.1 mm 7 m/s 734 mmHg 88%
    02:00 +6°C° 0.1 mm 7 m/s 734 mmHg 88%
    03:00 +6°C° 0.1 mm 7 m/s 734 mmHg 87%
    04:00 +6°C° 0 mm 7 m/s 733 mmHg 86%
    05:00 +6°C° 0 mm 8 m/s 733 mmHg 85%
    06:00 +6°C° 0 mm 8 m/s 733 mmHg 83%
    07:00 +6°C° 1 mm 9 m/s 733 mmHg 85%
    08:00 +6°C° 1 mm 10 m/s 733 mmHg 87%
    09:00 +6°C° 1 mm 11 m/s 732 mmHg 90%
    10:00 +7°C° 0.3 mm 11 m/s 733 mmHg 89%
    11:00 +8°C° 0.3 mm 11 m/s 734 mmHg 88%
    12:00 +9°C° 0.3 mm 11 m/s 735 mmHg 87%
    13:00 +9°C° 0.1 mm 11 m/s 736 mmHg 81%
    14:00 +11°C° 0.1 mm 10 m/s 737 mmHg 75%
    15:00 +12°C° 0.1 mm 10 m/s 739 mmHg 69%
    16:00 +11°C° 0 mm 9 m/s 740 mmHg 71%
    17:00 +10°C° 0 mm 8 m/s 741 mmHg 74%
    18:00 +10°C° 0 mm 7 m/s 742 mmHg 76%
    19:00 +9°C° 0 mm 7 m/s 742 mmHg 77%
    20:00 +9°C° 0 mm 7 m/s 743 mmHg 77%
    21:00 +8°C° 0 mm 7 m/s 743 mmHg 78%
    22:00 +8°C° 0 mm 6 m/s 743 mmHg 80%
    23:00 +8°C° 0 mm 6 m/s 743 mmHg 82%

    26 Aprilie, Vineri

    Timp Temperatura Precipitaţii Vânt Presiune Umiditate
    00:00 +8°C° 0 mm 6 m/s 743 mmHg 84%
    01:00 +8°C° 0 mm 6 m/s 743 mmHg 87%
    02:00 +7°C° 0 mm 6 m/s 743 mmHg 90%
    03:00 +7°C° 0 mm 5 m/s 743 mmHg 93%
    04:00 +7°C° 0 mm 4 m/s 744 mmHg 94%
    05:00 +9°C° 0 mm 3 m/s 745 mmHg 95%
    06:00 +9°C° 0 mm 3 m/s 745 mmHg 96%
    07:00 +8°C° 0.2 mm 5 m/s 746 mmHg 93%
    08:00 +9°C° 0.2 mm 7 m/s 748 mmHg 91%
    09:00 +8°C° 0.2 mm 9 m/s 749 mmHg 89%
    10:00 +8°C° 0.1 mm 9 m/s 750 mmHg 86%
    11:00 +8°C° 0.1 mm 10 m/s 751 mmHg 83%
    12:00 +8°C° 0.1 mm 10 m/s 752 mmHg 80%
    13:00 +8°C° 0 mm 9 m/s 753 mmHg 75%
    14:00 +8°C° 0 mm 9 m/s 754 mmHg 70%
    15:00 +10°C° 0 mm 8 m/s 755 mmHg 65%
    16:00 +9°C° 0.1 mm 8 m/s 755 mmHg 70%
    17:00 +8°C° 0.1 mm 7 m/s 755 mmHg 75%
    18:00 +8°C° 0.1 mm 6 m/s 755 mmHg 81%
    19:00 +8°C° 0.4 mm 7 m/s 755 mmHg 85%
    20:00 +8°C° 0.4 mm 7 m/s 754 mmHg 90%
    21:00 +7°C° 0.4 mm 8 m/s 754 mmHg 94%
    22:00 +8°C° 0.1 mm 7 m/s 754 mmHg 93%
    23:00 +8°C° 0.1 mm 6 m/s 755 mmHg 91%

    27 Aprilie, Sâmbătă

    Timp Temperatura Precipitaţii Vânt Presiune Umiditate
    00:00 +7°C° 0.1 mm 6 m/s 755 mmHg 90%
    01:00 +6°C° 0 mm 5 m/s 755 mmHg 89%
    02:00 +6°C° 0 mm 5 m/s 756 mmHg 89%
    03:00 +5°C° 0 mm 4 m/s 756 mmHg 88%
    04:00 +5°C° 0 mm 4 m/s 757 mmHg 88%
    05:00 +5°C° 0 mm 4 m/s 757 mmHg 89%
    06:00 +5°C° 0 mm 4 m/s 757 mmHg 89%
    07:00 +7°C° 0 mm 5 m/s 757 mmHg 85%
    08:00 +9°C° 0 mm 5 m/s 757 mmHg 80%
    09:00 +10°C° 0 mm 6 m/s 757 mmHg 76%
    10:00 +10°C° 0.1 mm 7 m/s 757 mmHg 81%
    11:00 +11°C° 0.1 mm 8 m/s 757 mmHg 85%
    12:00 +11°C° 0.1 mm 9 m/s 756 mmHg 89%
    13:00 +11°C° 0.1 mm 9 m/s 756 mmHg 89%
    14:00 +12°C° 0.1 mm 9 m/s 756 mmHg 89%
    15:00 +12°C° 0.1 mm 9 m/s 756 mmHg 89%
    16:00 +12°C° 0.1 mm 9 m/s 756 mmHg 89%
    17:00 +12°C° 0.1 mm 8 m/s 756 mmHg 90%
    18:00 +12°C° 0.1 mm 8 m/s 756 mmHg 91%
    19:00 +12°C° 0.1 mm 8 m/s 757 mmHg 91%
    20:00 +11°C° 0.1 mm 7 m/s 757 mmHg 91%
    21:00 +11°C° 0.1 mm 7 m/s 758 mmHg 91%
    22:00 +11°C° 0 mm 7 m/s 757 mmHg 92%
    23:00 +11°C° 0 mm 7 m/s 757 mmHg 92%
    Arată mai mult